This is the latest recevied weather packets stored in our database for station/object N4CJR-13. If no packets are shown the sender has not sent any weather packets the latest 1 day(s).
| Time | Temp. | Humidity | Pressure | Rain* | Wind** | Luminosity | Snow |
|---|---|---|---|---|---|---|---|
| 1778101263 | 24.44° C | 96% | 995.3 hPa | - | 0.89 m/s, 149° | - | - |
| 1778097663 | 23.89° C | 96% | 995.2 hPa | - | 0.89 m/s, 193° | - | - |
| 1778094063 | 23.33° C | 100% | 995.6 hPa | - | 0.89 m/s, 142° | - | - |
| 1778089563 | 22.22° C | 100% | 996.3 hPa | - | 1.34 m/s, 163° | - | - |
| 1778088663 | 22.22° C | 100% | 996.3 hPa | - | 1.79 m/s, 182° | - | - |
| 1778087763 | 22.22° C | 100% | 996.3 hPa | - | 1.34 m/s, 195° | - | - |
| 1778086862 | 22.22° C | 100% | 996.6 hPa | - | 1.34 m/s, 152° | - | - |
| 1778083263 | 21.11° C | 100% | 996.4 hPa | - | 1.34 m/s, 242° | - | - |
| 1778082362 | 20.56° C | 100% | 996.7 hPa | - | 0.89 m/s, 221° | - | - |
| 1778076062 | 19.44° C | 100% | 997.7 hPa | - | 0.45 m/s, 250° | - | - |
| 1778073363 | 20° C | 100% | 998.2 hPa | - | 0.89 m/s, 205° | - | - |
| 1778072463 | 20° C | 100% | 997.7 hPa | - | 0.45 m/s, 260° | - | - |
| 1778071562 | 20.56° C | 100% | 997.3 hPa | - | 0.45 m/s, 212° | - | - |
| 1778068862 | 20.56° C | 97% | 997.9 hPa | - | 0.45 m/s, 223° | - | - |
| 1778067063 | 21.11° C | 91% | 997.6 hPa | - | 0.89 m/s, 218° | - | - |
| 1778063462 | 21.11° C | 84% | 996.9 hPa | - | 0.89 m/s, 212° | - | - |
| 1778060763 | 21.11° C | 80% | 996.8 hPa | - | 0.89 m/s, 288° | - | - |
| 1778057162 | 21.67° C | 76% | 997.2 hPa | - | 0.89 m/s, 280° | - | - |
| 1778056263 | 21.67° C | 75% | 997.1 hPa | - | 1.34 m/s, 221° | - | - |
| 1778055363 | 22.22° C | 73% | 997.1 hPa | - | 1.34 m/s, 191° | - | - |
| 1778051762 | 22.78° C | 68% | 997.1 hPa | - | 0.89 m/s, 253° | - | - |
| 1778050862 | 22.78° C | 67% | 997.3 hPa | - | 0.89 m/s, 240° | - | - |
| 1778048163 | 23.33° C | 63% | 997.5 hPa | - | 1.34 m/s, 205° | - | - |
| 1778047262 | 23.33° C | 62% | 997.5 hPa | - | 0.89 m/s, 197° | - | - |
| 1778046363 | 23.89° C | 61% | 997.5 hPa | - | 1.34 m/s, 241° | - | - |
* Rain since midnight (hover to see other rain measurements)
** Current wind speed in m/s (hover to see current wind gust speed)